When you browse on this site, cookies collect data to enhance your experience and personalize the content and advertising you see.
Visit our Privacy Policy to learn more. By continuing to use the site, you agree to this use of cookies and data.
  • En Estados Unidos
  • Lista de países
  • Para 7 días
  • Temperatura del agua
  • Mapa Satelital
  • El tiempo en el mapa
  • Informadores
  • user-avatar
    Iniciar sesión

    Tiempo cada hora Constantine

    Hoy, 11 Diciembre, Martes

    Tiempo Temperatura Precipitaciones Viento Presión Humedad
    00:00 +8°C° 0 mm 1 mps 715 mmHg 94%
    01:00 +8°C° 0 mm 1 mps 715 mmHg 94%
    02:00 +8°C° 0 mm 1 mps 714 mmHg 94%
    03:00 +8°C° 0 mm 1 mps 714 mmHg 94%
    04:00 +7°C° 0 mm 1 mps 714 mmHg 93%
    05:00 +7°C° 0 mm 1 mps 714 mmHg 93%
    06:00 +7°C° 0 mm 1 mps 714 mmHg 92%
    07:00 +9°C° 0 mm 1 mps 714 mmHg 86%
    08:00 +10°C° 0 mm 1 mps 714 mmHg 79%
    09:00 +12°C° 0 mm 1 mps 715 mmHg 73%
    10:00 +13°C° 0 mm 1 mps 714 mmHg 65%
    11:00 +14°C° 0 mm 1 mps 714 mmHg 57%
    12:00 +16°C° 0 mm 1 mps 714 mmHg 49%
    13:00 +16°C° 0 mm 2 mps 714 mmHg 48%
    14:00 +16°C° 0 mm 2 mps 713 mmHg 48%
    15:00 +16°C° 0 mm 2 mps 713 mmHg 48%
    16:00 +15°C° 0 mm 2 mps 713 mmHg 57%
    17:00 +13°C° 0 mm 1 mps 713 mmHg 66%
    18:00 +11°C° 0 mm 1 mps 712 mmHg 76%
    19:00 +10°C° 0 mm 1 mps 712 mmHg 78%
    20:00 +10°C° 0 mm 1 mps 712 mmHg 79%
    21:00 +10°C° 0 mm 1 mps 712 mmHg 81%
    22:00 +10°C° 0 mm 1 mps 712 mmHg 81%
    23:00 +9°C° 0 mm 1 mps 712 mmHg 80%

    Mañana, 12 Diciembre, Miércoles

    Tiempo Temperatura Precipitaciones Viento Presión Humedad
    00:00 +9°C° 0 mm 1 mps 712 mmHg 79%
    01:00 +9°C° 0 mm 1 mps 712 mmHg 76%
    02:00 +9°C° 0 mm 1 mps 712 mmHg 74%
    03:00 +9°C° 0 mm 1 mps 711 mmHg 72%
    04:00 +9°C° 0 mm 1 mps 711 mmHg 70%
    05:00 +9°C° 0 mm 1 mps 711 mmHg 69%
    06:00 +8°C° 0 mm 1 mps 712 mmHg 67%
    07:00 +10°C° 0 mm 1 mps 712 mmHg 60%
    08:00 +12°C° 0 mm 1 mps 712 mmHg 54%
    09:00 +14°C° 0 mm 1 mps 713 mmHg 47%
    10:00 +15°C° 0 mm 2 mps 713 mmHg 43%
    11:00 +16°C° 0 mm 2 mps 712 mmHg 38%
    12:00 +17°C° 0 mm 2 mps 712 mmHg 33%
    13:00 +17°C° 0 mm 2 mps 712 mmHg 35%
    14:00 +17°C° 0 mm 2 mps 711 mmHg 37%
    15:00 +17°C° 0 mm 2 mps 711 mmHg 39%
    16:00 +15°C° 0 mm 2 mps 711 mmHg 46%
    17:00 +13°C° 0 mm 2 mps 711 mmHg 53%
    18:00 +11°C° 0 mm 1 mps 710 mmHg 60%
    19:00 +11°C° 0 mm 1 mps 710 mmHg 60%
    20:00 +11°C° 0 mm 1 mps 710 mmHg 61%
    21:00 +10°C° 0 mm 1 mps 710 mmHg 61%
    22:00 +10°C° 0 mm 1 mps 710 mmHg 60%
    23:00 +10°C° 0 mm 1 mps 710 mmHg 59%

    Pasado mañana, 13 Diciembre, Jueves

    Tiempo Temperatura Precipitaciones Viento Presión Humedad
    00:00 +10°C° 0 mm 1 mps 709 mmHg 58%
    01:00 +10°C° 0 mm 1 mps 709 mmHg 57%
    02:00 +10°C° 0 mm 1 mps 709 mmHg 56%
    03:00 +9°C° 0 mm 1 mps 708 mmHg 55%
    04:00 +9°C° 0 mm 1 mps 708 mmHg 55%
    05:00 +9°C° 0 mm 1 mps 708 mmHg 55%
    06:00 +9°C° 0 mm 1 mps 708 mmHg 55%
    07:00 +9°C° 0 mm 2 mps 708 mmHg 51%
    08:00 +12°C° 0 mm 2 mps 708 mmHg 48%
    09:00 +14°C° 0 mm 2 mps 708 mmHg 44%
    10:00 +15°C° 0 mm 2 mps 708 mmHg 40%
    11:00 +16°C° 0 mm 3 mps 707 mmHg 36%
    12:00 +18°C° 0 mm 3 mps 707 mmHg 33%
    13:00 +18°C° 0 mm 3 mps 706 mmHg 34%
    14:00 +18°C° 0 mm 3 mps 706 mmHg 35%
    15:00 +18°C° 0 mm 3 mps 705 mmHg 37%
    16:00 +16°C° 0 mm 3 mps 705 mmHg 41%
    17:00 +14°C° 0 mm 2 mps 705 mmHg 45%
    18:00 +12°C° 0 mm 2 mps 704 mmHg 49%
    19:00 +12°C° 0 mm 2 mps 704 mmHg 49%
    20:00 +10°C° 0 mm 2 mps 704 mmHg 49%
    21:00 +10°C° 0 mm 2 mps 704 mmHg 49%
    22:00 +10°C° 0 mm 2 mps 704 mmHg 50%
    23:00 +9°C° 0 mm 2 mps 703 mmHg 50%

    14 Diciembre, Viernes

    Tiempo Temperatura Precipitaciones Viento Presión Humedad
    00:00 +9°C° 0 mm 2 mps 703 mmHg 51%
    01:00 +9°C° 0 mm 2 mps 703 mmHg 53%
    02:00 +9°C° 0 mm 2 mps 702 mmHg 55%
    03:00 +9°C° 0 mm 2 mps 702 mmHg 57%
    04:00 +10°C° 0.1 mm 1 mps 702 mmHg 60%
    05:00 +9°C° 0.1 mm 1 mps 702 mmHg 63%
    06:00 +9°C° 0.1 mm 1 mps 702 mmHg 66%
    07:00 +9°C° 0.2 mm 1 mps 702 mmHg 66%
    08:00 +10°C° 0.2 mm 1 mps 702 mmHg 66%
    09:00 +10°C° 0.2 mm 1 mps 703 mmHg 66%
    10:00 +10°C° 0.1 mm 2 mps 703 mmHg 66%
    11:00 +10°C° 0.1 mm 2 mps 703 mmHg 66%
    12:00 +11°C° 0.1 mm 3 mps 703 mmHg 66%
    13:00 +11°C° 0.3 mm 3 mps 703 mmHg 71%
    14:00 +10°C° 0.3 mm 4 mps 703 mmHg 77%
    15:00 +9°C° 0.3 mm 5 mps 703 mmHg 82%
    16:00 +9°C° 0.5 mm 5 mps 704 mmHg 85%
    17:00 +8°C° 0.5 mm 6 mps 704 mmHg 88%
    18:00 +8°C° 0.5 mm 6 mps 705 mmHg 91%
    19:00 +8°C° 0.9 mm 6 mps 705 mmHg 91%
    20:00 +8°C° 0.9 mm 5 mps 706 mmHg 91%
    21:00 +8°C° 0.9 mm 5 mps 706 mmHg 92%
    22:00 +8°C° 0.9 mm 5 mps 706 mmHg 92%
    23:00 +8°C° 0.9 mm 5 mps 707 mmHg 93%

    15 Diciembre, Sábado

    Tiempo Temperatura Precipitaciones Viento Presión Humedad
    00:00 +8°C° 0.9 mm 5 mps 707 mmHg 93%
    01:00 +8°C° 0.5 mm 5 mps 707 mmHg 93%
    02:00 +8°C° 0.5 mm 5 mps 708 mmHg 94%
    03:00 +8°C° 0.5 mm 4 mps 708 mmHg 94%
    04:00 +8°C° 0.7 mm 4 mps 709 mmHg 94%
    05:00 +8°C° 0.7 mm 4 mps 709 mmHg 94%
    06:00 +8°C° 0.7 mm 4 mps 710 mmHg 93%
    07:00 +8°C° 1.2 mm 5 mps 711 mmHg 93%
    08:00 +8°C° 1.2 mm 5 mps 711 mmHg 92%
    09:00 +9°C° 1.2 mm 6 mps 712 mmHg 92%
    10:00 +9°C° 0.5 mm 7 mps 712 mmHg 89%
    11:00 +9°C° 0.5 mm 8 mps 713 mmHg 86%
    12:00 +9°C° 0.5 mm 8 mps 713 mmHg 84%
    13:00 +9°C° 0.1 mm 8 mps 713 mmHg 83%
    14:00 +9°C° 0.1 mm 8 mps 713 mmHg 82%
    15:00 +9°C° 0.1 mm 8 mps 714 mmHg 81%
    16:00 +8°C° 0.2 mm 7 mps 714 mmHg 83%
    17:00 +8°C° 0.2 mm 6 mps 714 mmHg 86%
    18:00 +8°C° 0.2 mm 5 mps 715 mmHg 88%
    19:00 +8°C° 0.2 mm 5 mps 715 mmHg 89%
    20:00 +8°C° 0.2 mm 4 mps 715 mmHg 89%
    21:00 +8°C° 0.2 mm 4 mps 716 mmHg 90%
    22:00 +9°C° 0.2 mm 3 mps 716 mmHg 90%
    23:00 +9°C° 0.2 mm 3 mps 716 mmHg 90%

    16 Diciembre, Domingo

    Tiempo Temperatura Precipitaciones Viento Presión Humedad
    00:00 +9°C° 0.2 mm 3 mps 716 mmHg 90%
    01:00 +9°C° 0.2 mm 2 mps 716 mmHg 90%
    02:00 +9°C° 0.2 mm 2 mps 716 mmHg 91%
    03:00 +9°C° 0.2 mm 2 mps 716 mmHg 91%
    04:00 +8°C° 0.1 mm 2 mps 716 mmHg 91%
    05:00 +8°C° 0.1 mm 2 mps 716 mmHg 91%
    06:00 +9°C° 0.1 mm 1 mps 717 mmHg 91%
    07:00 +10°C° 0.1 mm 1 mps 717 mmHg 87%
    08:00 +10°C° 0.1 mm 1 mps 717 mmHg 84%
    09:00 +11°C° 0.1 mm 1 mps 718 mmHg 80%
    10:00 +12°C° 0 mm 2 mps 718 mmHg 76%
    11:00 +12°C° 0 mm 2 mps 718 mmHg 72%
    12:00 +13°C° 0 mm 2 mps 718 mmHg 67%
    13:00 +13°C° 0 mm 2 mps 718 mmHg 66%
    14:00 +13°C° 0 mm 1 mps 718 mmHg 64%
    15:00 +14°C° 0 mm 1 mps 717 mmHg 63%
    16:00 +12°C° 0 mm 1 mps 718 mmHg 69%
    17:00 +11°C° 0 mm 1 mps 718 mmHg 75%
    18:00 +9°C° 0 mm 0 mps 718 mmHg 81%
    19:00 +10°C° 0 mm 1 mps 718 mmHg 80%
    20:00 +10°C° 0 mm 1 mps 718 mmHg 80%
    21:00 +10°C° 0 mm 1 mps 718 mmHg 79%
    22:00 +10°C° 0 mm 1 mps 718 mmHg 77%
    23:00 +10°C° 0 mm 1 mps 718 mmHg 75%
    Mostrar más